Regional Weather Roundup
Issued by NWS Kansas City/Pleasant Hill, MO

Home | Current Version | Previous Version | Graphics & Text | Print | Product List | Glossary Off
Versions: 1 2 3 4 5 6 7 8 9 10 11 12 13 14 15 16 17 18 19 20 21 22 23 24 25 26 27 28 29 30 31 32 33 34 35 36 37 38 39 40 41 42 43 44 45 46 47 48 49 50

000
ASUS43 KEAX 052210
RWREAX

WEATHER ROUNDUP FOR EASTERN KANSAS AND NORTHWEST MISSOURI
NATIONAL WEATHER SERVICE KANSAS CITY/PLEASANT HILL MO
400 PM CST FRI FEB 05 2016

KSZ040-057-103>105-MOZ028-029-037-043-052300-
...KANSAS CITY METROPOLITAN AREA...

CITY           SKY/WX    TMP DP  RH WIND       PRES   REMARKS
K.C. INTL      CLOUDY    40  22  48 S7        30.29F
K.C. DOWNTOWN  CLOUDY    44  20  38 CALM      30.30F
LEES SUMMIT    CLOUDY    42  21  43 SW3       30.31F
OLATHE - IXD   CLOUDY    43  22  43 SW5       30.31F
OLATHE - OJC   CLOUDY    42  20  41 CALM      30.30F
LAWRENCE       CLOUDY    42  21  43 S8        30.30F

$$

MOZ001>008-011>017-020>025-030>033-038>040-044>046-053-054-052300-
...NORTHERN AND CENTRAL MISSOURI...

CITY           SKY/WX    TMP DP  RH WIND       PRES   REMARKS
ST. JOSEPH     CLOUDY    39  23  52 S9        30.29F WCI  33
MOSBY          PTCLDY    37  23  56 SE6       30.32F WCI  33
WARRENSBURG    PTSUNNY   43  21  42 CALM      30.32S
WHITEMAN AFB   MOSUNNY   44  21  40 VRB3      30.31F
CLINTON          N/A     46  25  42 CALM      30.33S
SEDALIA        SUNNY     45  18  34 CALM      30.33F
WARSAW         NOT AVBL
CHILLICOTHE      N/A     37  22  54 VRB5      30.35S WCI  33
KIRKSVILLE     CLOUDY    35  16  45 SE6       30.33F WCI  30

$$

MOZ041-047>049-056>058-063>065-088>090-097-052300-
...EASTERN AND SOUTHERN MISSOURI...

CITY           SKY/WX    TMP DP  RH WIND       PRES   REMARKS
ST. LOUIS INTL CLOUDY    41  15  35 CALM      30.38S
SPIRIT OF STL  MOSUNNY   42  17  36 NE3       30.35F
COLUMBIA       SUNNY     42  14  32 W3        30.34R
JEFFERSON CITY SUNNY     43  19  38 E5        30.35S
ROLLA          SUNNY     44  18  35 CALM      30.30S
OSAGE BEACH    SUNNY     46  19  34 CALM      30.32F
SPRINGFIELD    SUNNY     50  18  28 SW12      30.30S
BRANSON        PTSUNNY   52  14  22 SW7       30.32S
JOPLIN         MOSUNNY   51  19  28 SW12      30.31F
WEST PLAINS    SUNNY     51  14  22 SW8       30.32F

$$

IAZ060-094-KSZ022-034>040-054-083-096-NEZ052-066-093-052300-
...KANSAS...SOUTHEAST NEBRASKA AND IOWA...

CITY           SKY/WX    TMP DP  RH WIND       PRES   REMARKS
TOPEKA         CLOUDY    43  21  41 S7        30.28F
MANHATTAN      CLOUDY    45  23  42 W7        30.27S
EMPORIA        MOSUNNY   48  21  34 VRB3      30.26F
CHANUTE        SUNNY     54  23  30 S7        30.28F
WICHITA        PTSUNNY   52  26  36 S9        30.24S
OMAHA          LGT SNOW  31  27  85 S12       30.24F FOG     WCI  22
LINCOLN        MOSUNNY   34  29  82 S7        30.24S WCI  28
FALLS CITY     CLOUDY    37  24  59 S5        30.28R WCI  33
LAMONI         CLOUDY    32  22  66 SE8       30.29S WCI  25
DES MOINES     CLOUDY    32  17  54 SE9       30.29F WCI  24

$$




USA.gov is the U.S. government's official web portal to all federal, state and local government web resources and services.